Wind_Speed
53 51 50 49 49 44 41 36 32 33 34 38 40 39 25 14 11 9 10 11 9 8 13 17 14 17 21 21 22 24 28 32 36 38 39 38 41 48 55 57 59 57 58 59 56 56 56 55 57
55 52 51 48 49 43 36 31 30 33 32 35 38 36 18 13 18 18 22 20 19 19 19 20 19 22 26 25 27 29 30 35 38 40 39 40 40 42 45 51 55 58 58 59 59 58 58 58 58
56 55 52 48 47 45 41 31 31 29 30 34 35 32 14 12 20 21 23 22 24 27 23 22 25 25 27 29 30 31 34 39 41 43 41 39 40 43 46 46 48 53 56 56 52 57 59 60 60
57 51 50 51 47 39 34 30 34 30 29 33 32 26 11 10 16 22 24 20 15 16 17 16 19 20 21 22 23 23 24 26 33 40 40 40 42 45 48 47 49 50 51 51 52 50 51 57 60
56 57 47 45 44 37 31 31 34 27 29 31 27 19 7 7 9 11 8 13 18 13 14 15 18 20 17 15 14 15 16 18 21 19 21 25 29 35 41 44 49 51 52 53 53 53 51 52 54
61 52 49 50 42 35 34 33 30 24 27 28 24 16 5 7 10 15 16 16 17 14 15 18 18 18 15 15 14 13 14 15 16 13 12 15 20 24 32 38 42 46 49 51 52 52 49 47 47
62 57 52 50 42 40 34 33 27 24 26 25 22 12 3 7 8 13 15 17 15 14 18 19 19 17 17 17 17 16 15 15 16 12 8 10 14 20 24 28 32 37 39 42 44 49 48 47 46
61 59 54 47 40 41 31 34 24 22 24 22 18 11 1 5 7 12 15 17 20 23 21 21 20 19 19 19 18 16 13 10 8 9 8 8 12 18 21 24 27 29 32 35 36 37 35 35 35
59 57 50 45 47 40 30 31 24 23 23 19 14 9 6 8 10 14 15 18 22 21 20 21 20 20 19 19 20 17 12 8 4 3 4 6 7 13 18 23 25 25 27 28 29 31 30 29 28
58 55 52 53 51 41 37 36 28 25 20 17 16 8 9 13 14 15 17 20 21 22 22 21 21 20 22 23 21 18 15 13 12 14 12 14 14 14 14 17 22 24 24 23 23 23 23 22 19
63 66 59 56 50 44 39 38 31 26 20 17 15 9 14 15 18 20 22 24 25 23 22 22 22 22 22 23 24 21 19 18 18 19 19 19 18 19 19 19 18 19 20 20 20 21 21 20 21
68 68 62 61 51 43 38 35 32 29 18 13 17 10 12 18 16 21 27 25 24 22 23 23 21 20 19 21 24 23 22 22 19 20 21 21 21 21 21 21 22 23 24 24 24 23 24 26 29
66 72 66 61 53 46 40 37 34 30 20 20 21 15 18 19 21 28 28 27 25 25 23 21 20 16 16 18 24 22 22 22 21 20 20 21 22 24 25 26 25 26 26 27 28 29 30 30 30
69 70 71 63 57 54 45 39 35 29 23 22 22 15 20 21 28 29 28 28 27 24 22 21 19 16 14 16 22 22 22 22 21 21 21 22 22 24 25 26 26 26 25 26 26 27 27 28 27
72 74 73 60 59 54 48 40 37 32 28 25 18 17 20 23 27 28 30 29 25 23 20 19 19 17 14 15 23 22 19 23 22 22 21 21 21 22 23 24 24 24 24 24 25 25 26 25 24
76 78 69 59 56 54 46 44 38 33 31 24 23 21 25 26 29 31 29 28 26 23 20 18 18 18 16 14 21 25 19 22 23 22 23 22 22 21 21 21 22 22 23 23 24 24 22 22 21
76 73 66 58 52 51 50 44 41 37 32 27 27 24 27 27 33 30 30 28 26 23 21 18 17 17 17 17 19 23 21 20 23 23 22 24 23 22 21 20 20 20 21 21 21 21 21 20 20
69 71 67 56 54 53 52 48 43 40 34 33 31 28 27 33 32 31 29 28 26 24 22 20 18 17 18 17 18 22 19 19 20 23 23 23 22 22 22 21 21 22 22 22 23 23 23 22 21
77 78 72 67 63 61 57 53 49 44 37 35 34 32 31 34 29 32 31 30 28 25 24 23 20 18 18 18 19 19 20 18 19 21 23 25 24 22 22 21 22 23 23 24 24 25 25 25 25
79 75 75 74 68 64 61 58 53 47 43 41 39 38 37 32 34 35 34 31 29 27 26 23 21 20 20 20 21 20 20 21 21 23 23 25 27 26 24 25 24 24 25 26 27 26 25 25 27
78 77 77 74 71 69 67 62 55 50 45 41 40 38 37 38 36 34 32 31 31 30 27 24 23 21 20 20 20 21 22 23 23 24 24 27 28 28 27 28 27 27 27 26 27 28 29 31 32
74 80 83 79 75 73 69 61 57 53 48 44 40 38 37 39 38 36 35 34 35 30 26 23 22 23 22 19 21 23 24 24 24 26 28 28 28 29 28 28 28 29 29 29 31 33 34 36 37
76 84 85 83 80 77 70 64 60 55 49 46 44 41 38 39 40 40 40 39 36 30 26 23 23 21 20 20 20 21 22 23 25 25 27 29 29 29 30 31 32 32 33 33 35 36 38 39 40
83 87 89 86 83 77 68 63 59 52 50 49 47 43 40 41 41 42 43 40 35 31 30 28 23 21 22 21 20 19 22 21 20 23 27 28 29 29 30 31 32 33 34 35 36 37 38 38 38
88 91 93 86 76 69 67 65 59 56 55 54 52 49 45 44 42 43 43 42 39 36 33 28 27 27 25 25 22 21 18 19 21 23 24 24 25 25 27 30 32 35 34 35 36 35 37 38 40
77 83 82 70 69 68 70 61 56 60 58 56 54 52 49 46 46 46 47 44 42 38 35 34 33 32 28 26 25 23 23 23 23 24 24 24 24 25 27 28 30 31 33 35 37 38 41 42 45
89 81 82 81 81 82 70 62 66 63 60 58 55 50 48 48 47 48 51 49 48 45 44 43 39 35 33 33 28 28 28 27 25 25 25 29 29 29 30 31 32 34 35 37 39 40 43 46 47
93 87 90 87 78 78 67 68 63 63 61 60 58 56 56 57 55 54 57 55 54 52 48 45 43 41 39 38 37 36 34 33 32 32 33 32 33 34 36 36 38 38 39 43 46 47 50 52 52
99 96 95 90 83 78 71 69 70 69 69 67 66 65 64 61 59 58 59 60 58 55 52 51 49 47 45 44 42 41 41 40 38 38 38 39 38 39 41 42 45 46 47 48 50 51 52 54 56
99 98 92 87 78 80 74 75 75 74 72 70 70 69 68 66 65 64 64 64 63 63 60 58 56 54 53 50 47 47 46 46 45 44 44 44 45 44 47 49 50 50 52 53 54 56 58 60 63
Wind_Direction
252 254 257 260 263 271 278 284 281 286 291 297 305 310 311 296 285 270 246 237 245 216 209 221 236 230 219 221 224 225 223 221 226 222 221 220 223 226 224 227 228 231 232 237 239 241 241 245 245
249 253 256 260 261 268 271 278 280 284 291 296 306 310 312 278 251 253 255 253 242 249 254 249 251 246 241 237 240 236 239 236 236 231 229 226 228 223 225 227 229 231 233 238 243 245 244 245 247
249 250 253 253 257 259 267 271 271 282 290 291 306 308 309 269 251 258 260 255 262 261 257 245 246 241 240 241 243 244 244 241 239 239 238 234 234 228 227 226 229 232 233 236 241 245 244 246 250
245 250 249 249 257 258 260 260 261 273 286 292 305 306 320 260 241 250 255 258 239 213 215 208 214 225 228 230 240 241 242 241 240 241 243 243 240 238 235 230 230 231 233 237 239 241 247 252 252
247 248 246 237 250 253 247 258 257 273 284 293 303 302 318 266 252 225 229 210 197 205 197 201 208 212 218 224 228 234 237 240 245 241 235 232 232 230 231 228 228 229 232 234 237 240 243 248 251
242 243 237 236 240 239 236 256 254 276 286 294 305 295 317 253 234 216 211 209 214 215 208 202 190 198 206 210 211 213 233 248 262 265 253 232 224 222 224 224 225 225 229 231 234 236 238 243 246
237 237 228 228 241 237 232 249 253 274 280 292 303 288 282 227 218 216 218 218 190 187 189 190 194 197 195 202 206 217 230 247 264 273 257 233 213 210 213 214 214 217 222 227 229 236 235 241 245
228 229 225 236 227 219 225 243 251 266 273 289 299 266 186 197 195 197 188 174 170 174 185 189 190 186 190 193 199 198 211 243 246 272 261 229 215 207 204 204 209 213 218 222 225 230 233 234 238
214 222 226 218 220 211 216 234 247 258 270 286 284 233 186 188 191 190 186 175 177 185 187 186 186 193 192 193 190 190 198 185 166 129 140 147 167 185 194 197 199 207 211 215 220 224 226 229 233
217 218 208 213 208 205 215 229 241 255 265 270 270 221 182 186 184 193 195 188 185 184 185 189 189 190 193 196 191 180 172 152 135 111 119 122 124 131 156 179 191 198 201 201 202 204 204 204 200
207 211 207 205 204 207 214 230 235 248 250 259 270 215 172 188 188 194 199 190 186 184 185 183 194 200 197 195 190 177 164 150 128 119 109 114 117 123 129 140 155 169 179 184 184 180 175 170 166
207 207 209 206 202 205 211 226 228 239 249 256 253 178 181 184 201 198 192 193 193 186 191 195 201 207 202 197 191 176 163 147 135 128 119 115 116 118 126 132 138 141 146 152 157 160 158 155 154
204 208 207 199 201 206 213 220 222 232 229 237 236 195 187 182 187 194 194 191 186 185 187 191 199 202 199 196 192 181 171 159 146 142 131 125 128 126 127 130 132 134 136 139 141 143 147 151 155
208 209 203 198 203 211 213 214 223 227 224 233 253 212 187 192 194 195 196 193 187 182 181 184 190 195 202 189 188 184 177 167 161 154 144 140 135 132 130 129 130 131 135 138 143 147 151 156 162
206 206 200 196 204 209 212 214 219 220 218 225 240 209 190 192 198 197 195 183 181 175 177 180 185 189 196 191 186 183 182 179 172 165 158 149 143 142 142 142 143 144 148 150 154 158 163 167 173
204 202 197 196 202 211 210 211 215 216 215 219 223 206 189 186 183 187 186 176 169 166 163 166 173 178 187 189 187 190 188 187 180 178 166 162 159 156 155 157 158 158 160 165 168 173 176 181 188
200 201 196 193 201 208 210 210 213 213 212 214 217 206 202 186 184 186 179 173 172 169 169 167 168 173 180 184 185 187 188 187 191 186 181 176 171 170 170 171 171 174 176 179 185 189 193 199 208
199 200 197 199 201 204 206 207 211 211 206 210 215 211 204 196 194 188 182 178 178 175 172 171 168 169 175 178 187 186 189 191 196 195 189 190 189 187 186 187 186 187 191 197 201 205 209 217 225
197 202 202 201 200 199 201 206 210 208 206 207 215 212 204 204 193 190 186 186 182 181 177 174 175 177 178 180 185 186 188 192 194 197 198 199 202 203 201 203 202 203 206 210 215 219 224 231 238
201 202 199 198 197 200 202 205 207 209 202 205 210 212 210 204 199 198 195 191 185 180 182 180 180 185 190 189 189 192 199 203 203 207 206 207 210 213 215 216 216 219 221 223 227 233 239 247 254
200 205 202 196 199 203 203 204 205 208 202 202 208 216 213 210 211 211 209 196 187 188 188 189 190 192 199 203 203 204 206 210 208 208 209 215 218 222 227 227 228 233 236 239 242 247 253 258 263
197 208 202 200 201 202 204 204 206 208 205 202 207 213 213 210 216 214 211 199 195 194 194 192 194 200 202 202 207 211 214 212 215 216 217 219 224 231 235 240 241 244 247 248 251 255 260 265 271
198 207 204 201 202 201 198 202 204 207 213 205 207 209 210 209 213 213 211 209 200 198 199 201 202 200 204 206 208 210 215 221 219 221 223 227 230 234 239 241 245 249 252 256 259 264 268 272 276
200 206 208 202 202 199 201 206 208 209 212 207 209 209 210 211 210 214 214 210 201 201 203 207 205 203 210 214 212 215 219 221 224 227 229 229 234 241 247 250 254 257 260 264 267 271 276 279 281
200 203 206 202 205 205 202 205 208 209 211 211 209 209 208 215 214 214 211 207 202 204 207 208 208 210 212 218 218 222 224 228 231 234 237 239 244 247 254 258 260 264 270 274 277 281 282 283 284
201 207 205 203 209 214 207 198 205 210 211 214 214 213 210 213 218 213 210 210 209 209 211 212 213 215 216 220 223 224 228 232 238 243 248 249 252 259 263 268 273 276 277 279 282 284 287 290 291
204 203 205 202 208 213 202 200 209 211 212 213 216 216 217 217 219 215 212 210 212 213 214 219 219 217 221 226 230 234 234 238 242 249 253 257 259 264 267 271 275 277 278 282 285 286 288 287 289
205 207 204 204 209 210 206 207 209 214 214 215 216 218 218 218 219 220 217 216 217 220 220 222 225 225 224 227 231 237 242 246 249 251 254 259 267 268 270 270 272 276 279 281 283 283 282 285 284
208 207 206 205 207 210 213 211 208 215 215 215 215 217 219 221 223 224 225 225 224 225 224 225 226 228 231 231 234 238 244 248 250 254 257 259 259 265 267 271 274 276 278 282 284 286 287 287 289
208 208 208 207 207 213 216 213 213 216 221 219 220 222 222 223 225 227 228 229 228 229 228 227 229 230 233 234 235 239 245 249 253 255 258 262 265 267 270 272 275 278 281 284 287 290 293 293 294
Height
10748 10752 10755 10758 10760 10763 10764 10765 10764 10762 10760 10755 10751 10746 10741 10738 10739 10740 10742 10745 10747 10750 10752 10754 10756 10758 10760 10761 10764 10767 10769 10771 10772 10773 10776 10780 10785 10789 10795 10796 10799 10803 10807 10806 10811 10813 10817 10820 10820
10740 10745 10748 10751 10754 10757 10758 10759 10759 10757 10755 10751 10747 10742 10737 10735 10736 10738 10740 10742 10744 10747 10749 10751 10752 10754 10755 10756 10759 10761 10763 10765 10764 10766 10770 10774 10778 10782 10786 10789 10793 10796 10799 10801 10803 10806 10810 10812 10814
10732 10737 10742 10744 10746 10751 10753 10754 10755 10753 10751 10747 10743 10740 10733 10731 10733 10735 10736 10738 10741 10743 10743 10746 10746 10747 10749 10751 10753 10755 10756 10757 10758 10759 10764 10768 10771 10774 10777 10782 10785 10789 10792 10795 10796 10799 10802 10805 10808
10723 10729 10732 10736 10741 10745 10747 10749 10750 10749 10746 10744 10739 10736 10730 10729 10730 10732 10734 10735 10736 10738 10739 10741 10742 10743 10744 10747 10748 10749 10750 10750 10751 10753 10757 10760 10763 10766 10768 10776 10779 10782 10785 10788 10791 10796 10797 10798 10801
10714 10720 10726 10729 10734 10739 10742 10744 10745 10744 10742 10740 10736 10733 10727 10726 10728 10730 10732 10734 10736 10737 10738 10739 10740 10740 10742 10743 10745 10745 10746 10746 10746 10747 10749 10751 10753 10756 10760 10765 10769 10774 10777 10781 10785 10788 10793 10792 10796
10706 10713 10717 10722 10727 10733 10736 10738 10740 10739 10738 10735 10732 10730 10725 10726 10728 10730 10732 10733 10735 10736 10736 10737 10738 10739 10741 10742 10743 10744 10744 10743 10743 10743 10744 10745 10746 10748 10751 10755 10760 10764 10769 10773 10778 10781 10786 10788 10790
10696 10700 10705 10714 10723 10727 10730 10732 10735 10734 10733 10732 10729 10728 10724 10725 10727 10728 10730 10732 10733 10734 10735 10736 10737 10738 10740 10741 10742 10743 10743 10743 10742 10741 10741 10740 10741 10743 10746 10749 10753 10757 10761 10765 10770 10772 10780 10783 10785
10683 10689 10702 10710 10715 10719 10724 10727 10730 10730 10730 10728 10727 10726 10722 10723 10726 10727 10729 10731 10732 10734 10735 10736 10737 10738 10739 10740 10742 10743 10743 10742 10741 10738 10737 10736 10736 10738 10741 10744 10748 10752 10757 10761 10765 10769 10774 10778 10781
10671 10684 10696 10703 10707 10711 10717 10722 10724 10725 10726 10726 10724 10723 10720 10723 10725 10727 10729 10730 10732 10733 10734 10736 10736 10738 10739 10740 10741 10742 10742 10742 10741 10738 10736 10735 10735 10736 10738 10742 10746 10749 10754 10758 10762 10766 10770 10774 10777
10667 10676 10685 10690 10695 10702 10709 10715 10719 10721 10722 10722 10721 10720 10719 10721 10724 10727 10729 10730 10731 10732 10734 10735 10736 10736 10737 10738 10739 10741 10743 10743 10742 10740 10738 10737 10737 10737 10738 10740 10744 10748 10752 10756 10760 10763 10767 10771 10774
10655 10662 10673 10681 10688 10694 10702 10709 10714 10716 10717 10718 10719 10717 10716 10720 10722 10725 10728 10729 10731 10733 10733 10734 10734 10735 10735 10737 10739 10741 10743 10744 10744 10743 10742 10741 10740 10740 10740 10741 10744 10747 10751 10754 10758 10762 10766 10769 10773
10642 10648 10664 10672 10680 10688 10694 10702 10707 10710 10714 10714 10715 10714 10715 10717 10721 10724 10726 10729 10731 10732 10733 10733 10734 10734 10736 10738 10740 10742 10744 10745 10745 10745 10745 10744 10745 10745 10745 10746 10747 10750 10752 10755 10759 10762 10766 10770 10773
10629 10638 10653 10662 10671 10679 10688 10695 10700 10705 10708 10710 10711 10710 10712 10715 10719 10722 10724 10727 10729 10730 10732 10733 10734 10735 10736 10738 10740 10743 10745 10746 10747 10747 10747 10748 10748 10748 10749 10750 10751 10753 10756 10758 10762 10765 10769 10772 10776
10617 10627 10643 10652 10663 10672 10681 10689 10695 10701 10703 10705 10708 10708 10708 10711 10715 10719 10723 10725 10727 10729 10731 10732 10733 10735 10736 10738 10740 10743 10745 10747 10748 10749 10749 10750 10751 10752 10754 10755 10756 10758 10760 10762 10765 10768 10772 10775 10777
10605 10617 10634 10644 10656 10666 10675 10684 10690 10694 10697 10701 10705 10706 10706 10709 10713 10718 10721 10723 10726 10728 10730 10731 10732 10734 10736 10738 10740 10743 10745 10747 10749 10750 10752 10753 10754 10755 10756 10758 10759 10761 10764 10766 10768 10771 10773 10776 10778
10590 10607 10628 10639 10650 10661 10672 10677 10684 10689 10693 10698 10701 10702 10705 10707 10711 10716 10720 10723 10725 10727 10729 10731 10732 10734 10736 10738 10740 10742 10744 10747 10749 10751 10752 10753 10754 10756 10758 10760 10761 10764 10766 10768 10770 10772 10774 10776 10778
10584 10612 10626 10635 10647 10656 10665 10671 10678 10683 10688 10694 10697 10699 10704 10707 10710 10714 10717 10721 10724 10726 10728 10730 10732 10733 10735 10737 10739 10742 10744 10746 10748 10750 10753 10754 10756 10757 10759 10761 10763 10765 10767 10769 10770 10772 10774 10775 10777
10598 10612 10620 10629 10642 10650 10656 10664 10671 10677 10683 10688 10692 10697 10700 10704 10707 10712 10716 10718 10721 10724 10726 10729 10731 10733 10734 10736 10738 10740 10743 10745 10747 10750 10753 10754 10756 10757 10759 10760 10762 10764 10766 10768 10769 10770 10772 10773 10774
10576 10593 10607 10620 10630 10637 10645 10654 10662 10670 10678 10684 10689 10694 10698 10701 10707 10709 10712 10715 10718 10721 10724 10727 10729 10731 10734 10735 10737 10740 10742 10744 10746 10748 10751 10753 10755 10757 10758 10760 10761 10763 10764 10765 10766 10767 10768 10769 10770
10570 10586 10597 10606 10616 10626 10635 10644 10654 10663 10670 10677 10683 10688 10693 10700 10704 10705 10708 10711 10715 10719 10721 10724 10727 10729 10732 10734 10736 10738 10740 10742 10744 10747 10749 10752 10753 10754 10756 10757 10759 10760 10761 10762 10763 10764 10765 10765 10764
10564 10578 10590 10601 10607 10617 10623 10635 10647 10657 10665 10672 10678 10683 10690 10696 10699 10702 10705 10708 10711 10714 10718 10721 10723 10726 10729 10731 10733 10736 10738 10740 10742 10744 10747 10748 10751 10753 10754 10754 10756 10757 10758 10759 10760 10759 10759 10759 10758
10556 10563 10574 10583 10596 10608 10620 10634 10641 10650 10659 10667 10674 10680 10687 10691 10696 10700 10703 10705 10705 10709 10714 10717 10720 10722 10725 10728 10730 10732 10734 10736 10738 10741 10743 10745 10748 10749 10750 10752 10752 10753 10754 10754 10754 10754 10753 10752 10751
10540 10549 10563 10573 10583 10594 10610 10621 10634 10644 10655 10663 10669 10674 10681 10684 10688 10693 10696 10697 10701 10706 10710 10714 10716 10719 10722 10724 10726 10728 10730 10732 10734 10737 10739 10742 10743 10745 10746 10747 10747 10748 10748 10748 10748 10747 10746 10745 10744
10521 10535 10547 10558 10571 10590 10608 10621 10632 10644 10651 10656 10662 10669 10675 10678 10681 10685 10689 10695 10699 10702 10705 10708 10712 10715 10717 10720 10722 10723 10726 10728 10730 10732 10734 10737 10738 10740 10741 10741 10742 10741 10741 10741 10741 10740 10739 10737 10736
10505 10517 10534 10550 10574 10597 10606 10616 10630 10636 10641 10647 10654 10660 10666 10671 10674 10678 10684 10689 10693 10697 10700 10704 10706 10708 10712 10714 10717 10719 10721 10723 10725 10727 10728 10730 10732 10732 10733 10734 10734 10734 10734 10734 10733 10733 10731 10730 10728
10524 10532 10552 10578 10589 10595 10599 10616 10627 10627 10633 10639 10646 10652 10658 10663 10667 10671 10676 10682 10687 10690 10694 10697 10699 10701 10705 10709 10711 10714 10716 10718 10720 10722 10723 10725 10726 10726 10727 10727 10727 10727 10726 10726 10726 10724 10723 10721 10718
10501 10522 10543 10554 10560 10571 10594 10609 10608 10618 10625 10633 10639 10648 10654 10657 10662 10665 10669 10674 10677 10680 10683 10686 10691 10695 10699 10702 10705 10707 10709 10712 10714 10716 10718 10718 10719 10720 10720 10720 10719 10718 10718 10717 10716 10715 10712 10709 10707
10499 10509 10522 10539 10557 10576 10592 10597 10607 10613 10619 10624 10630 10636 10639 10642 10648 10653 10658 10662 10666 10669 10674 10679 10683 10687 10691 10695 10697 10699 10702 10704 10706 10708 10709 10711 10712 10712 10712 10712 10711 10710 10709 10707 10706 10705 10702 10699 10696
10488 10502 10519 10531 10545 10569 10580 10592 10594 10597 10602 10609 10613 10618 10622 10630 10636 10643 10647 10652 10656 10660 10666 10670 10674 10678 10681 10684 10687 10691 10693 10695 10697 10699 10700 10701 10702 10702 10702 10702 10701 10700 10698 10696 10694 10691 10689 10686 10683
10482 10495 10511 10528 10549 10564 10574 10581 10582 10586 10592 10598 10602 10607 10612 10617 10624 10629 10634 10639 10644 10649 10654 10658 10663 10668 10670 10674 10678 10681 10683 10686 10687 10688 10690 10690 10690 10691 10690 10689 10689 10687 10686 10684 10682 10679 10675 10672 10669